C/2017 O1 ( ASASSN )

Japanese version
Home page
Updated on October 23, 2017

---------------------------------------------------------------------

* Profile

Discovery Date July 19, 2017
Magnitude 15.3 mag
Discoverer All-Sky Automated Survey for Supernovae (ASASSN)

* Pictures

* Orbital Elements

Epoch 2017 Oct. 14.0 TT = JDT 2458040.5
T 2017 Oct. 14.78473 TT                                 MPCW
q   1.4987116            (2000.0)            P               Q
z  +0.0022998      Peri.   20.90767     +0.72167902     -0.63351912
 +/-0.0000088      Node    25.81025     +0.50849600     +0.21170698
e   0.9965532      Incl.   39.84913     +0.46969268     +0.74420003
From 1527 observations 2017 July 19-Sept. 30, mean residual 0".5.

* Finding Charts

* Magnitudes Graph

        m1 = 7.0 + 5 log d + 10.0 log r(t + 45)

---------------------------------------------------------------------

The orbital elements are published on M.P.E.C. 2017-T14.
The charts are made with StellaNavigator Ver.10 (AstroArts).
The magnitudes graphs are made with Comet for Windows.

---------------------------------------------------------------------

Copyright(C) Seiichi Yoshida (comet@aerith.net). All rights reserved.